STARLINK-34541

Last updated on Fri Aug 08 2025 00:02:05 GMT+0000 (Coordinated Universal Time)

1 64771U 25147S 25218.91668981 .00010647 00000+0 27583-3 0 9995 2 64771 53.1604 163.3675 0001029 89.5625 16.3161 15.39614152 5813
UTC large
Height (km)
Speed (km/s)
/
Latitude / Longitude
Inclination (degrees)
Orbital Period (minutes)
Azimuth
Elevation
Range (km)
Doppler Factor

Next 0 passes for location: London (51.5072 / 0.1276)

Sorry there are no passes over London.
STARLINK-34541